Location: Nederland
(52.1000°N, 5.2000°E)
Time: 07:49:35
(UTC+02:00)

Envisat - Visible Passes

Search period start: 14 August 2022 00:00
Search period end: 24 August 2022 00:00
Orbit: 763 x 765 km, 98.2° (Epoch: 13 August)

Date Brightness Start Highest point End Pass type
(mag) Time Alt. Az. Time Alt. Az. Time Alt. Az.
14 Aug 4.9 05:24:38 10° NNE 05:29:09 31° E 05:33:36 10° SSE visible
15 Aug 5.6 04:48:39 10° NE 04:51:46 16° E 04:54:51 10° SE visible
17 Aug 5.2 05:13:02 10° NE 05:17:13 25° E 05:21:22 10° SSE visible
18 Aug 5.8 04:37:29 10° ENE 04:39:46 13° E 04:42:03 10° ESE visible
19 Aug 4.4 05:37:47 10° NNE 05:42:33 39° E 05:47:19 10° SSE visible
20 Aug 5.5 05:01:29 10° NE 05:05:16 21° E 05:09:02 10° SE visible
21 Aug 6.1 04:27:18 10° ENE 04:27:45 10° E 04:28:13 10° E visible
22 Aug 4.8 05:26:06 10° NNE 05:30:40 32° E 05:35:11 10° SSE visible
23 Aug 5.6 04:50:02 10° NE 04:53:18 17° E 04:56:32 10° SE visible
